Flag for India Weather past 2 weeks in Kolkata, West Bengal, India

Now
81 °F

Fog.


Feels Like: 88 °F
Forecast: 81 / 91 °F
Wind: No wind

Location: Calcutta / Dum Dum

Current Time: Jul 5, 2015 at 6:37:25 AM

Latest Report: Jul 5, 2015 at 5:20 AM


Visibility: 1 mi

Pressure: 29.47 "Hg

Humidity: 94%

Dew point: 79 °F

Location of KolkataLocation

Historic Weather in Kolkata — Graph

°F

Kolkata temperature yesterday

Maximum temperature yesterday: 97 °F (at 1:50 PM)
Minimum temperature yesterday: 79 °F (at 10:20 PM)
Average temperature yesterday: 87 °F

Past Weeks' High & Low Weather Summary

 TemperatureHumidityPressure
High97 °F (Jul 4, 1:50 PM)100% (Jun 28, 12:20 PM)29.74 "Hg (Jun 28, 12:20 PM)
Low77 °F (Jun 27, 7:50 AM)56% (Jul 4, 1:50 PM)29.30 "Hg (Jun 26, 3:50 AM)
Average83 °F87%29.50 "Hg
* Reported Jun 20 4:50 AM — Jul 5 5:20 AM, Kolkata, Weather by CustomWeather, © 2015

Note: Actual official high and low records may vary slightly from our data, if they occured in-between our weather recording intervals... More about our weather records

Advertising

Kolkata weather history for previous 24 hours

 ConditionsComfort  
Time TempWeatherWind HumidityBarometerVisibility
5:20 AM
Sun, Jul 5
81 °FFog.No wind94%29.47 "Hg1 mi
4:50 AM79 °FPartly cloudy.No wind94%29.47 "Hg1 mi
4:20 AM79 °FPartly cloudy.No wind94%29.47 "Hg1 mi
3:50 AM79 °FMostly cloudy.No wind94%29.47 "Hg1 mi
3:20 AM79 °FMostly cloudy.No wind94%29.50 "Hg1 mi
2:50 AM79 °FLight rain. Mostly cloudy.No wind94%29.47 "Hg1 mi
2:20 AM79 °FLight rain. Mostly cloudy.No wind94%29.50 "Hg1 mi
1:20 AM79 °FThunderstorms. Mostly cloudy.No wind94%29.50 "Hg1 mi
12:50 AM79 °FThunderstorms. Mostly cloudy.No wind94%29.50 "Hg1 mi
12:20 AM79 °FThunderstorms. Mostly cloudy.No wind94%29.53 "Hg1 mi
11:50 PM
Sat, Jul 4
79 °FThunderstorms. Mostly cloudy.No wind94%29.53 "Hg1 mi
11:20 PM79 °FThunderstorms. Mostly cloudy.6 mph94%29.53 "Hg1 mi
10:50 PM79 °FThunderstorms. Mostly cloudy.8 mph94%29.56 "Hg1 mi
10:20 PM79 °FThunderstorms. Mostly cloudy.7 mph94%29.53 "Hg1 mi
9:50 PM82 °FThunderstorms. Mostly cloudy.7 mph89%29.56 "Hg1 mi
9:20 PM86 °FThunderstorms. Mostly cloudy.14 mph84%29.53 "Hg1 mi
8:50 PM90 °FThunderstorms. Mostly cloudy.7 mph75%29.53 "Hg1 mi
8:20 PM90 °FThunderstorms. Partly cloudy.3 mph75%29.50 "Hg1 mi
7:50 PM90 °FPartly cloudy.7 mph75%29.47 "Hg2 mi
7:20 PM91 °FPartly cloudy.8 mph71%29.47 "Hg2 mi
6:50 PM91 °FBroken clouds.6 mph71%29.47 "Hg2 mi
6:20 PM93 °FBroken clouds.7 mph67%29.45 "Hg2 mi
5:50 PM93 °FScattered clouds.7 mph63%29.45 "Hg2 mi
5:20 PM95 °FScattered clouds.7 mph60%29.45 "Hg2 mi
4:50 PM95 °FScattered clouds.7 mph60%29.45 "Hg2 mi
4:20 PM97 °FScattered clouds.No wind56%29.45 "Hg2 mi
3:50 PM97 °FScattered clouds.3 mph56%29.45 "Hg2 mi
3:20 PM97 °FScattered clouds.3 mph56%29.47 "Hg2 mi
2:50 PM97 °FScattered clouds.3 mph56%29.47 "Hg2 mi
2:20 PM97 °FScattered clouds.6 mph56%29.50 "Hg2 mi
1:50 PM97 °FScattered clouds.3 mph56%29.50 "Hg2 mi
1:20 PM95 °FScattered clouds.5 mph60%29.50 "Hg2 mi
12:50 PM93 °FHaze.6 mph67%29.53 "Hg2 mi
12:20 PM93 °FHaze.7 mph67%29.53 "Hg2 mi
11:50 AM93 °FHaze.7 mph67%29.53 "Hg2 mi
11:20 AM93 °FHaze.5 mph67%29.56 "Hg2 mi
10:50 AM91 °FHaze.8 mph71%29.56 "Hg2 mi
10:20 AM91 °FScattered clouds.6 mph71%29.56 "Hg2 mi
9:20 AM90 °FScattered clouds.8 mph75%29.56 "Hg2 mi
8:50 AM88 °FScattered clouds.8 mph79%29.56 "Hg2 mi
8:20 AM86 °FScattered clouds.8 mph84%29.56 "Hg2 mi
7:50 AM86 °FScattered clouds.7 mph79%29.56 "Hg2 mi
7:20 AM84 °FBroken clouds.6 mph79%29.56 "Hg2 mi
6:50 AM82 °FBroken clouds.6 mph84%29.56 "Hg2 mi
6:20 AM82 °FBroken clouds.6 mph84%29.53 "Hg1 mi
Weather by CustomWeather, © 2015

See weather overviewHow to use our weather pages